This demonstration page uses our WeatherBlox Daily Observations layout. Learn more.

Left ArrowRight Arrow

44.89941, -97.11507

Hourly Observations for October 27, 2019

Temp ( °F °C ) Dew Point ( °F °C ) Humidity (%) Winds ( mph kmh ) Pressure ( in mb ) Visibility ( mi km ) Precip ( " mm )
12:53 am 00:53 Cloudy 38 3.3 32 0 79 79 NNW 16 26 29.85 1011 10 16 0.00 0.00
1:53 am 01:53 Cloudy 37 2.8 32 0 82 82 NNW 22 35 29.86 1011 10 16 0.00 0.00
2:08 am 02:08 Cloudy 38 3.3 32 0 79 79 NW 17 28 29.94 1014 10 16 0.00 0.00
2:22 am 02:22 Cloudy 38 3.3 32 0 79 79 NNW 18 30 29.94 1014 10 16 0.00 0.00
2:53 am 02:53 Cloudy 37 2.8 32 0 82 82 NW 16 26 29.90 1013 10 16 0.00 0.00
3:53 am 03:53 Cloudy 36 2.2 31 -0.6 82 82 NNW 18 30 29.91 1013 10 16 0.00 0.00
4:53 am 04:53 Windy with Snow Likely 35 1.7 32 0 89 89 NNW 20 31 29.93 1014 4 6 0.00 0.00
5:24 am 05:24 Cloudy with Light Snow 34 1.1 33 0.6 97 97 NNW 16 26 30.00 1016 9 14 0.01 0.25
5:53 am 05:53 Cloudy 34 1.1 33 0.6 97 97 NW 12 19 29.95 1014 10 16 0.01 0.25
6:23 am 06:23 Cloudy 35 1.7 32 0 89 89 NNW 17 28 30.00 1016 10 16 0.00 0.00
6:53 am 06:53 Cloudy 34 1.1 32 0 92 92 NW 15 24 29.98 1015 10 16 0.00 0.00
7:53 am 07:53 Cloudy with Light Snow 34 1.1 31 -0.6 89 89 NW 17 28 30.02 1017 9 14 0.00 0.00
8:14 am 08:14 Cloudy with Light Snow 33 0.6 31 -0.6 92 92 NW 15 24 30.06 1018 2 3 0.00 0.00
8:16 am 08:16 Cloudy with Light Snow 33 0.6 31 -0.6 92 92 NW 16 26 30.06 1018 1 2 0.00 0.00
8:23 am 08:23 Cloudy with Light Snow 33 0.6 31 -0.6 92 92 NNW 14 22 30.06 1018 1 1 0.00 0.00
8:31 am 08:31 Cloudy with Light Snow 32 0 31 -0.6 96 96 NNW 13 20 30.06 1018 1 2 0.00 0.00
8:37 am 08:37 Cloudy with Light Snow 33 0.6 31 -0.6 92 92 NW 16 26 30.06 1018 2 3 0.00 0.00
8:48 am 08:48 Cloudy with Light Snow 34 1 30 -1 87 87 NW 16 26 30.06 1018 3 4 0.00 0.00
8:53 am 08:53 Cloudy with Light Snow 33 0.6 31 -0.6 92 92 NW 14 22 30.02 1017 3 4 0.00 0.00
9:01 am 09:01 Cloudy with Light Snow 33 0.6 31 -0.6 92 92 NW 15 24 30.06 1018 6 10 0.00 0.00
9:04 am 09:04 Cloudy with Light Snow 33 0.6 31 -0.6 92 92 NW 13 20 30.06 1018 8 13 0.00 0.00
9:53 am 09:53 Cloudy 34 1.1 30 -1.1 85 85 NW 12 19 30.07 1018 10 16 0.00 0.00
10:53 am 10:53 Cloudy 34 1.1 29 -1.7 82 82 NNW 16 26 30.06 1018 10 16 0.00 0.00
11:53 am 11:53 Cloudy 33 0.6 29 -1.7 85 85 NW 17 28 30.09 1019 10 16 0.00 0.00
12:53 pm 12:53 Cloudy 33 0.6 28 -2.2 82 82 NW 15 24 30.10 1019 10 16 0.00 0.00
1:53 pm 13:53 Cloudy 32 0 26 -3.3 79 79 NW 18 30 30.10 1019 10 16 0.00 0.00
2:50 pm 14:50 Cloudy 34 1 25 -4 70 70 WNW 18 30 30.12 1020 10 16 0.00 0.00
2:53 pm 14:53 Cloudy 32 0 24 -4.4 73 73 WNW 16 26 30.10 1019 10 16 0.00 0.00
3:53 pm 15:53 Cloudy 32 0 22 -5.6 66 66 NW 14 22 30.11 1020 10 16 0.00 0.00
4:53 pm 16:53 Cloudy 32 0 20 -6.7 61 61 WNW 15 24 30.13 1020 10 16 0.00 0.00
5:53 pm 17:53 Mostly Cloudy 31 -0.6 19 -7.2 61 61 NW 15 24 30.11 1020 10 16 0.00 0.00
6:53 pm 18:53 Cloudy 31 -0.6 18 -7.8 59 59 NW 13 20 30.13 1020 10 16 0.00 0.00
7:53 pm 19:53 Cloudy 30 -1.1 18 -7.8 61 61 NW 18 30 30.14 1021 10 16 0.00 0.00
8:53 pm 20:53 Cloudy 29 -1.7 17 -8.3 61 61 WNW 16 26 30.16 1021 10 16 0.00 0.00
9:53 pm 21:53 Cloudy 29 -1.7 17 -8.3 61 61 WNW 18 30 30.16 1022 10 16 0.00 0.00
10:53 pm 22:53 Cloudy 28 -2.2 16 -8.9 60 60 WNW 14 22 30.17 1022 10 16 0.00 0.00
11:53 pm 23:53 Partly Cloudy 26 -3.3 15 -9.4 63 63 WNW 8 13 30.19 1022 10 16 0.00 0.00

Powered by AerisWeather